SCP
-0 -1 -1 -1 -1 -1 -1 -1 -2 -2 -1 -1 -1 -1 -0 -0 -0 -0 -0 -0 -0 -0 -0 -0 -0 -0 -0 0 0 -0 -0 -0 0 0 0 0 -0 -0 -0 -0 -0 -0 -0
-1 -1 -1 -1 -1 -1 -1 -1 -1 -1 -1 -1 -1 -1 -0 -0 -0 -0 -0 -0 -0 -0 -0 -0 -0 -0 -0 0 0 -0 -0 0 0 0 -0 -0 -0 -0 -0 -0 -0 -0 -0
-1 -1 -1 -1 -1 -1 -1 -1 -1 -1 -1 -1 -1 -0 -0 -0 -0 -0 -0 -0 -0 -0 -0 -0 -0 -0 0 0 0 0 0 -0 -0 -0 -0 -0 -0 0 -0 -0 -0 -0 0
-0 -1 -1 -1 -1 -1 -1 -1 -1 -1 -1 -1 -1 -0 -0 -0 -0 -0 -0 -0 -0 0 -0 -0 -0 -0 0 0 0 0 -0 -0 -0 -0 -0 -0 -0 0 0 -0 0 0 0
-0 -0 -0 -1 -1 -1 -1 -0 -0 -1 -1 -1 -1 -0 -0 -0 -0 -0 -0 -0 -0 0 -0 -0 -0 0 0 0 0 -0 -0 -0 -0 -0 -0 -0 -0 0 0 0 0 0 0
0 0 -0 -0 -0 -0 -1 -1 -0 -0 -0 -0 -0 -0 -0 -0 -0 -0 -0 -0 -0 -0 -0 -0 -0 0 0 -0 -0 -0 -0 -0 -0 -0 -0 -0 -0 0 0 0 0 -0 0
0 0 0 0 0 0 -1 -1 -0 -0 -0 -0 -0 -0 -0 -0 -0 -0 -0 -0 -0 -0 -0 -0 0 0 -0 -0 -0 -0 -0 -0 -0 -0 -0 0 0 0 0 0 0 0 0
0 0 -0 -0 -0 0 0 0 0 -0 -0 -0 -0 -0 -0 -0 -0 -0 0 0 -0 -0 0 0 0 0 0 -0 -0 -0 -0 -0 -0 -0 0 0 0 0 0 0 0 0 0
0 0 0 0 0 0 0 0 0 -0 -0 -0 -0 -0 -0 -0 -0 -0 0 0 0 0 0 0 0 0 0 0 0 -0 -0 -0 -0 -0 -0 0 0 0 0 0 0 0 0
1 1 1 1 0 0 0 0 0 0 -0 0 0 0 0 0 0 0 0 0 0 0 0 0 0 0 0 0 0 0 0 -0 -0 -0 -0 0 0 0 0 0 0 0 0
1 1 1 1 1 0 0 0 0 0 -0 0 0 0 0 0 0 0 0 0 0 0 0 0 0 0 0 0 0 0 0 0 0 0 0 0 0 0 0 0 0 1 1
1 1 1 1 1 0 0 1 0 0 0 0 0 0 0 0 0 0 0 0 0 0 0 0 0 0 0 0 0 0 0 0 0 0 0 0 0 0 0 1 0 0 1
1 1 1 1 1 0 0 1 1 0 0 1 0 0 0 0 0 0 0 0 0 0 0 0 0 0 0 0 0 0 0 0 0 0 0 0 0 0 0 1 2 1 0
1 1 1 1 1 1 1 1 1 1 1 1 1 1 0 0 0 0 0 0 1 0 0 0 0 0 0 0 0 0 0 0 0 0 0 0 0 0 0 1 2 3 1
1 1 1 1 0 1 1 1 1 1 1 1 1 1 0 0 0 0 0 0 0 0 0 0 0 0 0 0 0 0 0 0 1 1 0 0 0 0 0 1 2 3 2
1 1 1 1 1 1 1 1 1 1 1 1 1 1 1 1 1 0 0 0 0 0 0 0 0 1 1 1 1 0 0 0 0 0 0 0 0 0 0 1 1 1 1
1 1 1 1 1 1 1 1 1 1 1 1 1 1 1 1 1 1 0 0 0 0 1 1 1 1 1 0 0 0 0 0 0 0 0 0 0 0 0 1 0 0 1
2 1 1 1 1 1 1 1 1 1 1 1 1 1 1 1 1 1 1 0 1 0 0 0 0 0 0 0 0 0 0 0 0 0 0 0 0 0 0 0 0 0 0
1 1 1 1 1 1 1 1 1 1 1 1 1 2 2 1 1 1 1 0 0 0 1 0 0 0 0 0 0 0 0 0 0 0 0 0 0 0 0 0 0 0 0
1 1 2 1 1 1 1 1 1 1 1 1 1 1 1 2 1 1 1 1 1 1 0 0 0 0 0 0 0 0 0 0 0 0 0 0 0 0 0 0 0 0 0
1 0 1 1 1 1 1 1 1 1 1 1 1 1 1 2 1 1 1 1 1 0 0 0 0 0 0 0 0 0 0 0 0 0 0 -0 0 0 0 0 0 0 0
0 1 1 1 1 1 1 1 1 1 1 1 1 1 1 1 1 0 1 0 0 0 0 0 0 0 0 0 0 0 -0 0 0 0 0 0 0 0 0 0 0 0 0
0 0 0 0 0 1 1 1 1 1 1 1 1 1 0 0 0 0 0 0 0 0 0 0 0 0 0 0 0 0 0 0 0 0 0 0 0 0 0 0 0 0 0
0 1 0 0 0 1 1 1 1 1 1 1 1 0 0 0 0 0 0 0 0 0 0 0 0 0 0 0 0 0 0 0 0 0 0 0 0 0 0 0 0 0 0
1 1 1 0 0 0 1 1 1 1 1 0 0 0 0 0 0 0 0 0 0 0 0 0 0 0 0 0 0 0 0 0 0 0 0 0 0 0 0 0 0 0 0
1 1 1 0 0 0 1 1 1 1 1 1 1 0 0 0 0 0 0 0 0 0 0 0 0 0 0 0 0 0 0 0 0 0 0 0 0 0 0 0 0 0 0
Wind_Speed_500mb
57 52 50 50 45 40 36 34 34 38 39 37 32 27 21 17 19 26 32 34 32 28 28 28 29 27 22 17 17 15 16 17 19 19 15 14 13 14 12 13 12 14 12
59 56 51 52 47 41 37 35 32 35 34 31 28 24 21 19 22 29 32 30 28 27 27 27 26 23 20 18 19 19 19 21 23 20 18 19 17 13 11 10 9 9 9
60 59 55 55 50 45 39 33 30 30 31 29 27 24 23 24 27 32 30 28 26 26 25 24 22 22 21 22 23 23 25 25 23 22 21 21 18 15 13 12 10 8 6
61 61 58 57 52 47 40 34 31 29 27 26 26 25 25 28 31 33 29 26 25 25 24 24 25 25 25 25 26 27 23 20 18 17 19 19 18 15 13 13 12 10 8
63 60 60 60 54 48 42 38 32 28 25 25 27 28 30 32 34 32 28 24 24 25 24 24 24 27 27 28 29 21 16 14 13 13 10 10 10 11 12 10 10 11 10
62 61 62 61 58 53 47 42 34 27 23 24 28 31 32 35 36 32 27 26 26 27 25 24 25 27 30 29 25 19 13 11 9 7 5 3 3 3 8 9 9 8 8
63 64 63 59 56 53 51 46 38 30 25 24 27 30 33 36 36 32 28 27 28 28 26 26 25 26 29 26 21 15 11 8 6 3 1 2 0 1 2 5 8 10 8
62 65 64 62 58 53 49 46 42 35 28 24 25 28 30 33 33 29 27 26 28 28 26 24 24 26 23 20 17 13 11 9 7 6 6 4 5 8 9 6 4 6 9
64 63 66 64 60 55 51 47 42 37 33 29 26 26 27 29 30 28 27 26 26 26 25 25 23 23 22 19 18 17 18 18 16 16 17 16 15 15 14 13 12 12 12
65 63 66 65 63 60 56 50 44 41 37 32 28 28 30 30 30 31 31 29 27 26 26 24 25 25 24 25 26 25 25 23 23 23 21 19 20 22 21 20 17 19 21
63 66 68 68 65 62 56 51 47 43 39 36 32 29 29 32 34 33 32 31 29 27 26 29 32 33 32 32 30 28 26 26 26 26 24 21 21 23 19 16 19 22 24
66 67 69 69 66 62 58 56 52 49 47 44 41 37 32 30 29 30 30 31 31 30 29 31 33 34 34 31 30 29 27 27 27 28 27 24 22 21 16 17 19 24 26
64 66 69 68 65 63 61 59 57 54 52 50 45 40 34 32 31 31 32 33 34 36 36 35 34 33 33 31 30 28 27 26 26 26 29 28 26 23 22 23 26 27 32
66 63 66 68 66 63 62 59 55 57 56 53 49 44 41 38 35 33 33 35 38 43 44 42 39 36 32 29 29 29 29 27 26 27 28 29 29 33 36 35 33 31 30
61 60 64 65 65 64 61 60 60 59 55 51 49 49 46 42 38 36 36 37 38 41 44 42 39 36 35 34 34 34 32 31 30 29 30 30 30 32 37 41 37 29 28
62 61 60 60 62 62 62 61 59 54 51 52 54 53 48 44 40 38 37 35 37 41 41 40 37 34 32 34 35 33 32 32 33 31 32 32 42 40 39 36 22 24 28
51 51 54 53 58 62 62 57 58 53 53 55 56 52 50 48 43 40 37 35 39 38 35 35 34 32 32 30 30 30 29 31 36 44 48 52 50 46 42 28 21 36 43
47 50 49 48 54 56 56 54 54 53 55 58 58 54 52 45 42 39 39 41 40 36 30 32 33 30 29 31 36 36 41 46 54 56 55 55 60 46 43 41 41 41 38
46 47 43 45 50 53 54 55 54 54 56 58 56 52 45 39 39 39 41 40 37 36 31 30 25 29 34 39 54 61 65 69 69 61 61 41 43 35 33 31 35 39 39
45 50 50 53 54 53 54 56 56 56 57 55 46 41 35 28 27 37 41 38 35 33 32 33 31 35 40 42 42 47 46 44 42 37 40 30 18 22 37 35 34 32 42
49 53 57 56 54 54 56 58 59 57 55 44 35 33 37 36 39 38 33 31 33 32 34 35 43 41 40 41 40 33 33 30 28 27 11 22 30 31 36 35 43 53 57
56 57 57 56 58 57 58 59 59 54 45 39 36 36 33 33 31 25 28 27 30 34 33 33 37 35 28 33 22 28 20 22 25 22 24 26 30 35 39 46 56 64 69
64 64 63 65 63 60 58 58 52 49 45 44 36 37 33 30 34 33 31 22 24 36 41 34 31 27 28 30 28 20 16 16 26 28 31 40 47 49 54 59 66 69 73
63 70 73 70 64 61 59 54 45 45 36 32 27 25 29 31 27 29 34 31 29 39 30 28 26 26 28 26 29 29 32 38 24 37 31 40 54 56 62 65 68 75 78
62 72 72 71 65 62 57 44 39 32 28 18 19 31 32 28 26 29 28 29 34 29 26 25 25 27 28 26 29 31 31 32 40 36 57 63 49 47 45 58 70 75 79
58 66 68 68 62 57 42 39 32 25 19 11 11 11 23 25 29 27 25 25 27 28 23 22 24 27 30 32 33 35 35 30 34 39 50 57 63 66 42 49 49 51 57
Wind_Direction_500mb
176 176 175 171 172 170 166 159 155 158 159 160 160 157 152 148 147 146 149 150 148 144 144 147 152 154 152 136 135 126 109 107 104 98 103 92 85 82 83 83 85 88 95
175 176 175 170 169 171 166 159 158 159 162 164 166 165 161 157 151 148 150 148 148 146 147 151 151 155 155 145 139 130 121 112 101 100 93 87 84 82 79 84 82 78 77
175 173 173 171 171 171 167 165 165 165 166 170 174 173 168 160 155 154 152 150 150 153 156 159 161 160 156 145 140 131 125 115 106 102 94 84 76 77 80 82 78 70 62
174 173 173 171 173 170 169 172 169 166 167 170 174 174 169 161 158 157 153 151 154 157 158 158 156 153 150 146 142 134 128 118 110 99 84 81 80 79 77 79 76 65 51
176 174 174 172 173 171 174 172 171 169 167 168 171 170 168 164 162 159 155 152 154 155 154 153 151 150 147 146 147 140 127 114 101 88 78 84 79 70 75 66 75 71 59
175 175 175 175 176 176 177 174 172 168 165 166 168 169 170 170 167 164 160 156 155 155 156 154 151 151 150 151 151 145 133 127 107 86 84 94 93 40 44 32 25 40 50
175 177 178 178 179 179 179 176 174 172 168 167 169 172 174 175 173 169 166 161 160 161 160 157 154 155 156 160 161 161 164 169 156 179 127 157 317 281 23 35 8 356 358
179 180 180 180 182 183 183 181 178 174 172 168 171 176 177 179 178 174 172 168 167 168 168 164 165 169 173 176 182 195 208 229 248 278 281 291 275 276 281 290 323 330 329
184 184 182 183 184 186 187 188 185 182 182 178 173 175 179 181 185 185 182 178 174 176 178 179 181 187 192 202 210 223 241 254 263 269 268 269 294 284 292 277 270 282 296
185 188 186 186 186 188 189 190 192 191 190 187 183 178 180 182 187 191 190 189 186 186 188 193 197 203 207 212 220 230 244 254 267 268 269 267 275 275 278 272 274 283 285
185 190 191 190 190 191 191 191 194 197 197 195 192 188 185 188 192 198 202 201 199 199 198 201 204 210 215 221 228 236 246 258 266 275 279 279 280 276 266 266 287 291 285
188 191 193 194 194 193 194 195 198 200 202 201 200 196 195 196 198 202 207 210 211 212 213 214 216 217 222 229 235 243 247 260 266 271 270 276 286 288 271 282 293 302 294
190 195 197 199 198 197 199 201 203 205 208 206 206 205 204 203 202 204 207 208 212 216 222 226 226 229 230 232 237 244 251 259 266 267 266 272 274 275 260 263 279 293 295
196 200 203 203 203 202 207 209 211 213 213 211 209 210 211 210 212 213 215 217 217 219 222 225 229 231 237 241 243 246 248 255 264 260 256 261 265 274 273 269 269 277 295
201 203 206 207 206 208 211 215 216 218 218 217 216 216 216 217 220 220 223 226 229 231 231 232 233 236 240 244 247 249 252 251 250 254 258 263 267 272 273 274 267 284 295
204 206 207 210 209 211 216 220 224 224 223 220 219 219 219 222 223 226 229 234 237 237 236 235 236 240 246 247 248 246 249 249 250 261 272 288 293 288 284 270 269 282 305
210 212 210 211 211 216 219 223 227 228 224 222 222 222 222 222 223 228 232 239 242 239 238 240 239 239 242 246 243 237 235 244 265 278 282 291 295 281 269 263 289 278 289
217 212 213 214 215 220 221 226 230 229 226 226 223 224 224 226 229 232 236 241 242 239 242 245 247 247 253 256 257 258 263 270 279 287 278 288 277 273 285 271 265 288 275
223 210 218 217 217 223 225 228 229 228 228 229 227 227 228 233 238 239 239 242 246 246 250 248 247 261 268 278 282 276 271 273 281 284 288 271 276 257 263 285 270 270 282
221 218 217 214 217 222 225 226 227 227 227 229 230 232 235 236 226 236 239 241 246 245 250 249 261 266 282 282 285 287 281 274 271 283 290 253 274 258 270 281 271 283 279
218 213 210 213 217 221 223 222 224 225 226 225 227 248 245 245 243 230 229 233 244 242 248 255 271 269 269 276 290 286 292 283 284 293 280 259 289 283 283 279 277 284 292
216 214 214 213 218 222 224 223 223 224 228 238 267 259 250 248 235 226 229 224 225 238 244 270 268 254 256 273 288 305 306 297 285 286 288 286 292 294 288 283 287 289 289
217 212 210 213 217 223 226 226 227 231 238 245 251 265 254 238 245 230 214 228 238 255 270 256 244 245 259 266 280 268 277 286 303 290 287 292 296 296 291 285 285 286 289
211 211 213 215 218 224 227 226 234 247 246 248 262 245 253 243 239 222 215 228 252 260 254 240 242 249 252 262 266 266 268 271 290 297 292 301 297 292 291 290 289 292 296
213 213 215 217 220 225 229 226 233 238 241 236 242 256 242 245 232 218 219 225 234 243 240 246 257 252 261 257 261 271 274 274 276 271 286 292 289 292 291 295 294 296 301
211 213 217 219 223 227 227 223 222 219 223 232 238 241 222 223 221 225 232 240 243 246 255 254 255 251 254 260 265 268 271 272 274 278 281 284 290 296 294 294 294 296 299
Wind_Speed_850mb
57 52 50 50 45 40 36 34 34 38 39 37 32 27 21 17 19 26 32 34 32 28 28 28 29 27 22 17 17 15 16 17 19 19 15 14 13 14 12 13 12 14 12
59 56 51 52 47 41 37 35 32 35 34 31 28 24 21 19 22 29 32 30 28 27 27 27 26 23 20 18 19 19 19 21 23 20 18 19 17 13 11 10 9 9 9
60 59 55 55 50 45 39 33 30 30 31 29 27 24 23 24 27 32 30 28 26 26 25 24 22 22 21 22 23 23 25 25 23 22 21 21 18 15 13 12 10 8 6
61 61 58 57 52 47 40 34 31 29 27 26 26 25 25 28 31 33 29 26 25 25 24 24 25 25 25 25 26 27 23 20 18 17 19 19 18 15 13 13 12 10 8
63 60 60 60 54 48 42 38 32 28 25 25 27 28 30 32 34 32 28 24 24 25 24 24 24 27 27 28 29 21 16 14 13 13 10 10 10 11 12 10 10 11 10
62 61 62 61 58 53 47 42 34 27 23 24 28 31 32 35 36 32 27 26 26 27 25 24 25 27 30 29 25 19 13 11 9 7 5 3 3 3 8 9 9 8 8
63 64 63 59 56 53 51 46 38 30 25 24 27 30 33 36 36 32 28 27 28 28 26 26 25 26 29 26 21 15 11 8 6 3 1 2 0 1 2 5 8 10 8
62 65 64 62 58 53 49 46 42 35 28 24 25 28 30 33 33 29 27 26 28 28 26 24 24 26 23 20 17 13 11 9 7 6 6 4 5 8 9 6 4 6 9
64 63 66 64 60 55 51 47 42 37 33 29 26 26 27 29 30 28 27 26 26 26 25 25 23 23 22 19 18 17 18 18 16 16 17 16 15 15 14 13 12 12 12
65 63 66 65 63 60 56 50 44 41 37 32 28 28 30 30 30 31 31 29 27 26 26 24 25 25 24 25 26 25 25 23 23 23 21 19 20 22 21 20 17 19 21
63 66 68 68 65 62 56 51 47 43 39 36 32 29 29 32 34 33 32 31 29 27 26 29 32 33 32 32 30 28 26 26 26 26 24 21 21 23 19 16 19 22 24
66 67 69 69 66 62 58 56 52 49 47 44 41 37 32 30 29 30 30 31 31 30 29 31 33 34 34 31 30 29 27 27 27 28 27 24 22 21 16 17 19 24 26
64 66 69 68 65 63 61 59 57 54 52 50 45 40 34 32 31 31 32 33 34 36 36 35 34 33 33 31 30 28 27 26 26 26 29 28 26 23 22 23 26 27 32
66 63 66 68 66 63 62 59 55 57 56 53 49 44 41 38 35 33 33 35 38 43 44 42 39 36 32 29 29 29 29 27 26 27 28 29 29 33 36 35 33 31 30
61 60 64 65 65 64 61 60 60 59 55 51 49 49 46 42 38 36 36 37 38 41 44 42 39 36 35 34 34 34 32 31 30 29 30 30 30 32 37 41 37 29 28
62 61 60 60 62 62 62 61 59 54 51 52 54 53 48 44 40 38 37 35 37 41 41 40 37 34 32 34 35 33 32 32 33 31 32 32 42 40 39 36 22 24 28
51 51 54 53 58 62 62 57 58 53 53 55 56 52 50 48 43 40 37 35 39 38 35 35 34 32 32 30 30 30 29 31 36 44 48 52 50 46 42 28 21 36 43
47 50 49 48 54 56 56 54 54 53 55 58 58 54 52 45 42 39 39 41 40 36 30 32 33 30 29 31 36 36 41 46 54 56 55 55 60 46 43 41 41 41 38
46 47 43 45 50 53 54 55 54 54 56 58 56 52 45 39 39 39 41 40 37 36 31 30 25 29 34 39 54 61 65 69 69 61 61 41 43 35 33 31 35 39 39
45 50 50 53 54 53 54 56 56 56 57 55 46 41 35 28 27 37 41 38 35 33 32 33 31 35 40 42 42 47 46 44 42 37 40 30 18 22 37 35 34 32 42
49 53 57 56 54 54 56 58 59 57 55 44 35 33 37 36 39 38 33 31 33 32 34 35 43 41 40 41 40 33 33 30 28 27 11 22 30 31 36 35 43 53 57
56 57 57 56 58 57 58 59 59 54 45 39 36 36 33 33 31 25 28 27 30 34 33 33 37 35 28 33 22 28 20 22 25 22 24 26 30 35 39 46 56 64 69
64 64 63 65 63 60 58 58 52 49 45 44 36 37 33 30 34 33 31 22 24 36 41 34 31 27 28 30 28 20 16 16 26 28 31 40 47 49 54 59 66 69 73
63 70 73 70 64 61 59 54 45 45 36 32 27 25 29 31 27 29 34 31 29 39 30 28 26 26 28 26 29 29 32 38 24 37 31 40 54 56 62 65 68 75 78
62 72 72 71 65 62 57 44 39 32 28 18 19 31 32 28 26 29 28 29 34 29 26 25 25 27 28 26 29 31 31 32 40 36 57 63 49 47 45 58 70 75 79
58 66 68 68 62 57 42 39 32 25 19 11 11 11 23 25 29 27 25 25 27 28 23 22 24 27 30 32 33 35 35 30 34 39 50 57 63 66 42 49 49 51 57
Wind_Direction_850mb
176 176 175 171 172 170 166 159 155 158 159 160 160 157 152 148 147 146 149 150 148 144 144 147 152 154 152 136 135 126 109 107 104 98 103 92 85 82 83 83 85 88 95
175 176 175 170 169 171 166 159 158 159 162 164 166 165 161 157 151 148 150 148 148 146 147 151 151 155 155 145 139 130 121 112 101 100 93 87 84 82 79 84 82 78 77
175 173 173 171 171 171 167 165 165 165 166 170 174 173 168 160 155 154 152 150 150 153 156 159 161 160 156 145 140 131 125 115 106 102 94 84 76 77 80 82 78 70 62
174 173 173 171 173 170 169 172 169 166 167 170 174 174 169 161 158 157 153 151 154 157 158 158 156 153 150 146 142 134 128 118 110 99 84 81 80 79 77 79 76 65 51
176 174 174 172 173 171 174 172 171 169 167 168 171 170 168 164 162 159 155 152 154 155 154 153 151 150 147 146 147 140 127 114 101 88 78 84 79 70 75 66 75 71 59
175 175 175 175 176 176 177 174 172 168 165 166 168 169 170 170 167 164 160 156 155 155 156 154 151 151 150 151 151 145 133 127 107 86 84 94 93 40 44 32 25 40 50
175 177 178 178 179 179 179 176 174 172 168 167 169 172 174 175 173 169 166 161 160 161 160 157 154 155 156 160 161 161 164 169 156 179 127 157 317 281 23 35 8 356 358
179 180 180 180 182 183 183 181 178 174 172 168 171 176 177 179 178 174 172 168 167 168 168 164 165 169 173 176 182 195 208 229 248 278 281 291 275 276 281 290 323 330 329
184 184 182 183 184 186 187 188 185 182 182 178 173 175 179 181 185 185 182 178 174 176 178 179 181 187 192 202 210 223 241 254 263 269 268 269 294 284 292 277 270 282 296
185 188 186 186 186 188 189 190 192 191 190 187 183 178 180 182 187 191 190 189 186 186 188 193 197 203 207 212 220 230 244 254 267 268 269 267 275 275 278 272 274 283 285
185 190 191 190 190 191 191 191 194 197 197 195 192 188 185 188 192 198 202 201 199 199 198 201 204 210 215 221 228 236 246 258 266 275 279 279 280 276 266 266 287 291 285
188 191 193 194 194 193 194 195 198 200 202 201 200 196 195 196 198 202 207 210 211 212 213 214 216 217 222 229 235 243 247 260 266 271 270 276 286 288 271 282 293 302 294
190 195 197 199 198 197 199 201 203 205 208 206 206 205 204 203 202 204 207 208 212 216 222 226 226 229 230 232 237 244 251 259 266 267 266 272 274 275 260 263 279 293 295
196 200 203 203 203 202 207 209 211 213 213 211 209 210 211 210 212 213 215 217 217 219 222 225 229 231 237 241 243 246 248 255 264 260 256 261 265 274 273 269 269 277 295
201 203 206 207 206 208 211 215 216 218 218 217 216 216 216 217 220 220 223 226 229 231 231 232 233 236 240 244 247 249 252 251 250 254 258 263 267 272 273 274 267 284 295
204 206 207 210 209 211 216 220 224 224 223 220 219 219 219 222 223 226 229 234 237 237 236 235 236 240 246 247 248 246 249 249 250 261 272 288 293 288 284 270 269 282 305
210 212 210 211 211 216 219 223 227 228 224 222 222 222 222 222 223 228 232 239 242 239 238 240 239 239 242 246 243 237 235 244 265 278 282 291 295 281 269 263 289 278 289
217 212 213 214 215 220 221 226 230 229 226 226 223 224 224 226 229 232 236 241 242 239 242 245 247 247 253 256 257 258 263 270 279 287 278 288 277 273 285 271 265 288 275
223 210 218 217 217 223 225 228 229 228 228 229 227 227 228 233 238 239 239 242 246 246 250 248 247 261 268 278 282 276 271 273 281 284 288 271 276 257 263 285 270 270 282
221 218 217 214 217 222 225 226 227 227 227 229 230 232 235 236 226 236 239 241 246 245 250 249 261 266 282 282 285 287 281 274 271 283 290 253 274 258 270 281 271 283 279
218 213 210 213 217 221 223 222 224 225 226 225 227 248 245 245 243 230 229 233 244 242 248 255 271 269 269 276 290 286 292 283 284 293 280 259 289 283 283 279 277 284 292
216 214 214 213 218 222 224 223 223 224 228 238 267 259 250 248 235 226 229 224 225 238 244 270 268 254 256 273 288 305 306 297 285 286 288 286 292 294 288 283 287 289 289
217 212 210 213 217 223 226 226 227 231 238 245 251 265 254 238 245 230 214 228 238 255 270 256 244 245 259 266 280 268 277 286 303 290 287 292 296 296 291 285 285 286 289
211 211 213 215 218 224 227 226 234 247 246 248 262 245 253 243 239 222 215 228 252 260 254 240 242 249 252 262 266 266 268 271 290 297 292 301 297 292 291 290 289 292 296
213 213 215 217 220 225 229 226 233 238 241 236 242 256 242 245 232 218 219 225 234 243 240 246 257 252 261 257 261 271 274 274 276 271 286 292 289 292 291 295 294 296 301
211 213 217 219 223 227 227 223 222 219 223 232 238 241 222 223 221 225 232 240 243 246 255 254 255 251 254 260 265 268 271 272 274 278 281 284 290 296 294 294 294 296 299